This is the latest recevied weather packets stored in our database for station/object NB9X. If no packets are shown the sender has not sent any weather packets the latest 10 day(s).
| Time | Temp. | Humidity | Pressure | Rain* | Wind** | Luminosity | Snow |
|---|---|---|---|---|---|---|---|
| 1788185669 | 30° C | 100% | 1016 hPa | 0 mm | - | - | - |
| 1788185368 | 29.44° C | 100% | 1016 hPa | 0 mm | - | - | - |
| 1788185069 | 29.44° C | 100% | 1016 hPa | 0 mm | - | - | - |
| 1788184769 | 28.89° C | 100% | 1016 hPa | 0 mm | - | - | - |
| 1788184469 | 29.44° C | 100% | 1016.1 hPa | 0 mm | - | - | - |
| 1788184169 | 28.89° C | 100% | 1016 hPa | 0 mm | - | - | - |
| 1788183869 | 28.89° C | 100% | 1016.1 hPa | 0 mm | - | - | - |
| 1788183569 | 28.33° C | 100% | 1016.1 hPa | 0 mm | - | - | - |
| 1788183269 | 28.33° C | 100% | 1016.1 hPa | 0 mm | - | - | - |
| 1788182969 | 28.33° C | 100% | 1016.1 hPa | 0 mm | - | - | - |
| 1788182669 | 28.33° C | 100% | 1016.3 hPa | 0 mm | - | - | - |
| 1788182369 | 27.78° C | 100% | 1016.2 hPa | 0 mm | - | - | - |
| 1788182069 | 27.78° C | 100% | 1016.2 hPa | 0 mm | - | - | - |
| 1788181769 | 27.78° C | 100% | 1016.2 hPa | 0 mm | - | - | - |
| 1788181469 | 27.22° C | 100% | 1016.3 hPa | 0 mm | - | - | - |
| 1788181169 | 27.22° C | 100% | 1016.3 hPa | 0 mm | - | - | - |
| 1788180869 | 26.67° C | 100% | 1016.3 hPa | 0 mm | - | - | - |
| 1788180569 | 26.67° C | 100% | 1016.3 hPa | 0 mm | - | - | - |
| 1788180269 | 26.67° C | 100% | 1016.2 hPa | 0 mm | - | - | - |
| 1788179969 | 26.67° C | 100% | 1016.1 hPa | 0 mm | - | - | - |
| 1788179669 | 26.11° C | 100% | 1016.1 hPa | 0 mm | - | - | - |
| 1788179369 | 26.11° C | 100% | 1016 hPa | 0 mm | - | - | - |
| 1788179069 | 25.56° C | 100% | 1016 hPa | 0 mm | - | - | - |
| 1788178769 | 25.56° C | 100% | 1015.9 hPa | 0 mm | - | - | - |
| 1788178469 | 25.56° C | 100% | 1015.8 hPa | 0 mm | - | - | - |
* Rain latest hour (hover to see other rain measurements)
** Current wind speed in m/s (hover to see current wind gust speed)